TimeEDT,TemperatureF,Dew PointF,Humidity,Sea Level PressureIn,VisibilityMPH,Wind Direction,Wind SpeedMPH,Gust SpeedMPH,PrecipitationIn,Events,Conditions,WindDirDegrees,DateUTC
12:15 AM,32.0,17.6,55,30.18,10.0,WNW,3.5,-,N/A,,Mostly Cloudy,300,2013-03-15 04:15:00
12:35 AM,32.0,17.6,55,30.18,10.0,West,3.5,-,N/A,,Overcast,280,2013-03-15 04:35:00
12:55 AM,32.0,19.4,60,30.18,10.0,West,5.8,-,N/A,,Overcast,280,2013-03-15 04:55:00
1:15 AM,32.0,17.6,55,30.17,10.0,West,5.8,-,N/A,,Mostly Cloudy,270,2013-03-15 05:15:00
1:35 AM,32.0,19.4,60,30.16,10.0,WSW,4.6,-,N/A,,Scattered Clouds,240,2013-03-15 05:35:00
2:15 AM,30.2,19.4,64,30.14,10.0,SW,5.8,-,N/A,,Clear,220,2013-03-15 06:15:00
2:35 AM,30.2,19.4,64,30.14,10.0,WSW,5.8,-,N/A,,Clear,240,2013-03-15 06:35:00
2:55 AM,30.2,19.4,64,30.14,10.0,SW,3.5,-,N/A,,Clear,220,2013-03-15 06:55:00
3:15 AM,30.2,19.4,64,30.14,10.0,WSW,4.6,-,N/A,,Clear,240,2013-03-15 07:15:00
3:35 AM,30.2,19.4,64,30.14,10.0,Calm,Calm,-,N/A,,Clear,0,2013-03-15 07:35:00
3:55 AM,30.2,19.4,64,30.13,10.0,SW,4.6,-,N/A,,Clear,220,2013-03-15 07:55:00
4:15 AM,30.2,19.4,64,30.12,10.0,SSW,3.5,-,N/A,,Clear,210,2013-03-15 08:15:00
4:35 AM,30.2,19.4,64,30.11,10.0,SSW,4.6,-,N/A,,Mostly Cloudy,210,2013-03-15 08:35:00
4:55 AM,32.0,23.0,69,30.10,10.0,SSW,4.6,-,N/A,,Overcast,210,2013-03-15 08:55:00
5:15 AM,32.0,23.0,69,30.10,10.0,SSW,6.9,-,N/A,,Overcast,200,2013-03-15 09:15:00
5:35 AM,32.0,23.0,69,30.10,10.0,SSW,3.5,-,N/A,,Mostly Cloudy,210,2013-03-15 09:35:00
5:55 AM,30.2,23.0,75,30.11,10.0,SW,5.8,-,N/A,,Scattered Clouds,230,2013-03-15 09:55:00
6:15 AM,32.0,26.6,80,30.11,10.0,SSW,5.8,-,N/A,,Overcast,210,2013-03-15 10:15:00
6:35 AM,32.0,26.6,80,30.10,10.0,SSW,4.6,-,N/A,,Overcast,200,2013-03-15 10:35:00
6:55 AM,32.0,26.6,80,30.10,10.0,SSW,6.9,-,N/A,,Overcast,210,2013-03-15 10:55:00
7:15 AM,32.0,24.8,75,30.10,10.0,SW,8.1,-,N/A,,Mostly Cloudy,220,2013-03-15 11:15:00
7:35 AM,32.0,26.6,80,30.10,10.0,SSW,6.9,-,N/A,,Mostly Cloudy,210,2013-03-15 11:35:00
7:55 AM,30.2,24.8,80,30.09,10.0,SSW,8.1,-,N/A,,Mostly Cloudy,210,2013-03-15 11:55:00
8:15 AM,32.0,26.6,80,30.09,10.0,SSW,6.9,-,N/A,,Clear,200,2013-03-15 12:15:00
8:35 AM,32.0,26.6,80,30.09,10.0,SSW,8.1,-,N/A,,Clear,210,2013-03-15 12:35:00
8:55 AM,33.8,26.6,75,30.09,10.0,SSW,6.9,-,N/A,,Clear,210,2013-03-15 12:55:00
9:15 AM,33.8,28.4,81,30.09,10.0,SW,8.1,-,N/A,,Clear,220,2013-03-15 13:15:00
9:35 AM,35.6,28.4,75,30.08,10.0,SW,6.9,-,N/A,,Clear,230,2013-03-15 13:35:00
9:55 AM,37.4,30.2,75,30.08,10.0,SW,8.1,-,N/A,,Clear,220,2013-03-15 13:55:00
10:15 AM,39.2,30.2,70,30.07,10.0,SW,11.5,17.3,N/A,,Clear,220,2013-03-15 14:15:00
10:35 AM,41.0,32.0,70,30.07,10.0,SW,12.7,-,N/A,,Clear,230,2013-03-15 14:35:00
11:55 AM,46.4,32.0,57,30.04,10.0,WSW,13.8,-,N/A,,Clear,240,2013-03-15 15:55:00
12:15 PM,48.2,32.0,54,30.04,10.0,SW,11.5,-,N/A,,Clear,230,2013-03-15 16:15:00
12:35 PM,48.2,32.0,54,30.03,10.0,SSW,12.7,18.4,N/A,,Clear,210,2013-03-15 16:35:00
12:55 PM,50.0,32.0,50,30.02,10.0,SW,15.0,18.4,N/A,,Clear,230,2013-03-15 16:55:00
1:15 PM,50.0,33.8,54,30.01,10.0,SW,15.0,19.6,N/A,,Clear,230,2013-03-15 17:15:00
1:35 PM,51.8,33.8,50,30.01,10.0,SW,16.1,21.9,N/A,,Clear,220,2013-03-15 17:35:00
1:55 PM,51.8,33.8,50,30.00,10.0,SW,13.8,21.9,N/A,,Clear,220,2013-03-15 17:55:00
2:15 PM,51.8,33.8,50,29.98,10.0,SW,17.3,21.9,N/A,,Clear,230,2013-03-15 18:15:00
2:35 PM,51.8,33.8,50,29.98,10.0,SW,18.4,24.2,N/A,,Clear,230,2013-03-15 18:35:00
2:55 PM,53.6,35.6,51,29.97,10.0,WSW,16.1,21.9,N/A,,Clear,240,2013-03-15 18:55:00
3:15 PM,53.6,35.6,51,29.96,10.0,SW,18.4,24.2,N/A,,Clear,220,2013-03-15 19:15:00
3:35 PM,53.6,35.6,51,29.96,10.0,SW,18.4,25.3,N/A,,Clear,220,2013-03-15 19:35:00
3:55 PM,53.6,35.6,51,29.95,10.0,SW,16.1,24.2,N/A,,Clear,230,2013-03-15 19:55:00
4:15 PM,55.4,33.8,44,29.95,10.0,SW,16.1,23.0,N/A,,Clear,230,2013-03-15 20:15:00
4:35 PM,55.4,35.6,47,29.95,10.0,SW,16.1,21.9,N/A,,Clear,220,2013-03-15 20:35:00
4:55 PM,55.4,35.6,47,29.95,10.0,SW,13.8,18.4,N/A,,Clear,230,2013-03-15 20:55:00
5:15 PM,57.2,35.6,44,29.95,10.0,SW,10.4,-,N/A,,Clear,220,2013-03-15 21:15:00
5:35 PM,57.2,35.6,44,29.94,10.0,SW,10.4,-,N/A,,Clear,230,2013-03-15 21:35:00
5:55 PM,59.0,35.6,42,29.94,10.0,WSW,10.4,-,N/A,,Clear,240,2013-03-15 21:55:00
6:15 PM,57.2,33.8,41,29.94,10.0,SW,12.7,-,N/A,,Clear,230,2013-03-15 22:15:00
6:35 PM,57.2,33.8,41,29.93,10.0,SW,10.4,19.6,N/A,,Clear,230,2013-03-15 22:35:00
7:15 PM,53.6,33.8,47,29.93,10.0,SW,8.1,-,N/A,,Clear,230,2013-03-15 23:15:00
7:35 PM,51.8,33.8,50,29.94,10.0,SW,6.9,-,N/A,,Clear,230,2013-03-15 23:35:00
7:55 PM,51.8,35.6,54,29.94,10.0,SW,6.9,-,N/A,,Clear,230,2013-03-15 23:55:00
8:15 PM,51.8,35.6,54,29.94,10.0,SW,8.1,-,N/A,,Clear,220,2013-03-16 00:15:00
8:35 PM,50.0,35.6,58,29.94,10.0,SW,6.9,-,N/A,,Clear,220,2013-03-16 00:35:00
8:55 PM,50.0,35.6,58,29.94,10.0,SW,5.8,-,N/A,,Clear,220,2013-03-16 00:55:00
9:15 PM,48.2,35.6,62,29.94,10.0,SSW,3.5,-,N/A,,Clear,210,2013-03-16 01:15:00
9:35 PM,50.0,35.6,58,29.93,10.0,WSW,3.5,-,N/A,,Clear,240,2013-03-16 01:35:00
9:55 PM,50.0,35.6,58,29.94,10.0,Calm,Calm,-,N/A,,Clear,0,2013-03-16 01:55:00
10:15 PM,46.4,35.6,66,29.93,10.0,SW,4.6,-,N/A,,Clear,230,2013-03-16 02:15:00
10:35 PM,46.4,35.6,66,29.93,10.0,SW,3.5,-,N/A,,Clear,220,2013-03-16 02:35:00
10:55 PM,46.4,35.6,66,29.92,10.0,SW,4.6,-,N/A,,Clear,220,2013-03-16 02:55:00
11:15 PM,46.4,35.6,66,29.92,10.0,SW,4.6,-,N/A,,Clear,230,2013-03-16 03:15:00
11:35 PM,46.4,35.6,66,29.91,10.0,SW,4.6,-,N/A,,Scattered Clouds,220,2013-03-16 03:35:00
11:55 PM,46.4,37.4,71,29.91,10.0,WSW,5.8,-,N/A,,Scattered Clouds,240,2013-03-16 03:55:00